{"data":{"norad_id":61512,"epoch":"2026-05-25T02:38:02.195232Z","epoch_age_seconds":69545,"freshness":"FRESH","line1":"1 61512U 24183D   26145.10974763 -.00000140  00000+0  74116-5 0  9997","line2":"2 61512  53.1589 134.6321 0001177  76.2190 283.8942 15.30192284 91538","mean_motion":15.30192284,"eccentricity":0.0001177,"inclination_deg":53.1589,"raan_deg":134.6321,"arg_perigee_deg":76.219,"mean_anomaly_deg":283.8942,"bstar":7.4116e-6,"rev_number":9153,"period_min":94.105820232982,"perigee_km":474.43146585109,"apogee_km":476.04475035154,"semimajor_km":6853.3751081013,"source":"CELESTRAK","updated_at":"2026-05-25T13:38:19.368849Z"}}